This is the latest recevied weather packets stored in our database for station/object N5JXS. If no packets are shown the sender has not sent any weather packets the latest 10 day(s).
| Time | Temp. | Humidity | Pressure | Rain* | Wind** | Luminosity | Snow |
|---|---|---|---|---|---|---|---|
| 1777931086 | 16.67° C | 28% | 1012.3 hPa | 0 mm | - | 129 W/m² | - |
| 1777930783 | 16.67° C | 27% | 1012.1 hPa | 0 mm | - | 184 W/m² | - |
| 1777930479 | 16.67° C | 27% | 1012.5 hPa | 0 mm | - | 137 W/m² | - |
| 1777930177 | 16.67° C | 27% | 1012.3 hPa | 0 mm | - | 129 W/m² | - |
| 1777929872 | 16.67° C | 26% | 1012.5 hPa | 0 mm | - | 131 W/m² | - |
| 1777929571 | 16.67° C | 25% | 1012.5 hPa | 0 mm | - | 124 W/m² | - |
| 1777929266 | 16.67° C | 26% | 1012.4 hPa | 0 mm | - | 138 W/m² | - |
| 1777928964 | 16.11° C | 27% | 1012.5 hPa | 0 mm | - | 135 W/m² | - |
| 1777928661 | 16.67° C | 27% | 1012.3 hPa | 0 mm | - | 130 W/m² | - |
| 1777928358 | 16.67° C | 27% | 1012.3 hPa | 0 mm | - | 140 W/m² | - |
| 1777928056 | 16.67° C | 27% | 1012.8 hPa | 0 mm | - | 144 W/m² | - |
| 1777927754 | 16.67° C | 27% | 1012.4 hPa | 0 mm | - | 168 W/m² | - |
| 1777927452 | 17.22° C | 27% | 1012.5 hPa | 0 mm | - | 185 W/m² | - |
| 1777927151 | 17.78° C | 26% | 1012.4 hPa | 0 mm | - | 351 W/m² | - |
| 1777926848 | 17.78° C | 26% | 1012.6 hPa | 0 mm | - | 219 W/m² | - |
| 1777926543 | 18.33° C | 25% | 1012.8 hPa | 0 mm | - | 198 W/m² | - |
| 1777926241 | 20° C | 23% | 1012.5 hPa | 0 mm | - | 212 W/m² | - |
| 1777925937 | 20° C | 22% | 1012.5 hPa | 0 mm | - | 599 W/m² | - |
| 1777925634 | 19.44° C | 23% | 1012.5 hPa | 0 mm | - | 405 W/m² | - |
| 1777925332 | 17.78° C | 24% | 1012.8 hPa | 0 mm | - | 758 W/m² | - |
| 1777925028 | 17.22° C | 25% | 1012.8 hPa | 0 mm | - | 570 W/m² | - |
| 1777924725 | 17.22° C | 25% | 1012.8 hPa | 0 mm | - | 419 W/m² | - |
| 1777924420 | 17.22° C | 24% | 1013.1 hPa | 0 mm | - | 223 W/m² | - |
| 1777924118 | 17.22° C | 24% | 1013 hPa | 0 mm | - | 189 W/m² | - |
| 1777923813 | 17.22° C | 25% | 1013 hPa | 0 mm | - | 193 W/m² | - |
* Rain latest hour (hover to see other rain measurements)
** Current wind speed in m/s (hover to see current wind gust speed)